Regional Weather Roundup
Issued by NWS

Home | Current Version | Previous Version | Text Only | Print | Product List | Glossary On
Versions: 1 2 3 4 5 6 7 8 9 10 11 12 13 14 15 16 17 18 19 20 21 22 23 24 25 26 27
000
ASUS46 KSEW 172110
RWRWA

WASHINGTON REGIONAL WEATHER ROUNDUP
NATIONAL WEATHER SERVICE SEATTLE WA
100 PM PST FRI NOV 17 2017

NOTE:"FAIR" INDICATES FEW OR NO CLOUDS BELOW 12,000 FEET WITH NO
SIGNIFICANT WEATHER AND/OR OBSTRUCTIONS TO VISIBILITY.

WAZ507-509-555>559-172200-
SEATTLE, TACOMA, EVERETT, AND VICINITY

CITY           SKY/WX    TMP DP  RH WIND       PRES   REMARKS
EVERETT        SUNNY     46  38  73 S8        30.12R
BOEING FIELD   PTSUNNY   49  39  68 SW8       30.13R
RENTON         PTSUNNY   50  40  68 S10G21    30.13R
SEATAC AIRPORT PTSUNNY   49  39  68 SW16      30.12R
JBLM-MCCHORD   PTSUNNY   48  43  81 SW13      30.14R
PUYALLUP       CLOUDY    48  39  71 SW8       30.15R
BREMERTON      PTSUNNY   47  39  74 SW15      30.12R
JBLM-FT LEWIS  MOSUNNY   48  45  88 S10       30.14R
TACOMA NARROWS PTSUNNY   47  40  76 S12G21    30.13R
$$

WAZ001-503-506-510-514-515-172200-
NORTH INTERIOR

CITY           SKY/WX    TMP DP  RH WIND       PRES   REMARKS
BELLINGHAM     MOSUNNY   48  39  71 VRB5      30.09R
FRIDAY HARBOR  CLOUDY    46  39  76 SW8       30.11R
EASTSOUND      CLOUDY    48  37  66 S3        30.10R
PORT ANGELES   MOSUNNY   50  37  61 W9        30.10R
EDIZ HOOK      FAIR      49  38  66 SE3       30.11R
PORT TOWNSEND  CLOUDY    48  41  76 E7        30.12R
NAS WHIDBEY    PTSUNNY   51  36  56 SW8       30.15R
ARLINGTON      PTSUNNY   47  38  71 S9        30.13R
BURLINGTON     CLOUDY    46  41  81 S8G14     30.12R
$$

WAZ020-022-039-040-504-511-512-172200-
SOUTHWEST INTERIOR

CITY           SKY/WX    TMP DP  RH WIND       PRES   REMARKS
SHELTON        MOSUNNY   49  40  71 SW14      30.11R
OLYMPIA        CLOUDY    49  42  77 SW10      30.15R
CHEHALIS       PTSUNNY   48  45  87 S7        30.16R
KELSO          LGT RAIN  45  42  89 S5        30.21R
VANCOUVER      PTSUNNY   50  44  80 SW6       30.21R
SCAPPOOSE, OR  MOSUNNY   50  42  74 SW9       30.20R
PORTLAND, OR   PTSUNNY   50  42  74 SW12      30.22R
$$

WAZ021-516-517-172200-
WASHINGTON COAST

CITY           SKY/WX    TMP DP  RH WIND       PRES   REMARKS
FORKS          CLOUDY    47  43  86 S5        30.11R
HOQUIAM        PTSUNNY   50  42  74 W10       30.14R
ASTORIA, OR    MOSUNNY   51  41  68 W10       30.18R
$$

WAZ019-023-024-040-567>569-172200-
CASCADE MOUNTAINS AND COLUMBIA GORGE

CITY           SKY/WX    TMP DP  RH WIND       PRES   REMARKS
STAMPEDE PASS  NOT AVBL
TROUTDALE, OR  CLOUDY    51  41  68 SW9       30.21R
HOOD RIVER, OR LGT RAIN  46  39  76 CALM      30.16R
THE DALLES, OR PTSUNNY   52  38  58 NW14      30.15R
$$

WAZ026-027-041>044-520-521-172200-
EAST SLOPES

CITY           SKY/WX    TMP DP  RH WIND       PRES   REMARKS
OMAK           SUNNY     45  34  65 S3        29.94R
WENATCHEE      MOSUNNY   49  25  39 W15       29.98R
ELLENSBURG     SUNNY     46  31  55 NW16      30.03R
YAKIMA         MOSUNNY   53  24  32 W24G30    30.04R
SUNNYSIDE ARPT CLEAR     50  30  45 SW18G24   30.07R
YAKIMA TC      FAIR      50  23  34 W18G26    30.01R
$$

WAZ028-034-035-172200-
COLUMBIA BASIN

CITY           SKY/WX    TMP DP  RH WIND       PRES   REMARKS
EPHRATA        SUNNY     51  23  33 SW12      29.99R
MOSES LAKE     SUNNY     50  27  40 W22       30.00R
PASCO          SUNNY     53  35  50 SW23      30.09R
RICHLAND ARPT  CLEAR     55  28  34 SW16      30.08R
HERMISTON, OR  SUNNY     51  33  50 W24G32    30.11R
$$

WAZ036>038-172200-
NORTHEAST WASHINGTON

CITY           SKY/WX    TMP DP  RH WIND       PRES   REMARKS
SPOKANE GEIGER MOSUNNY   42  30  62 W18       29.95R
SPOKANE FELTS  MOSUNNY   44  29  55 SW17G26   29.96R
FAIRCHILD AFB  MOSUNNY   42  31  64 SW21      29.94R
COEURDALENE,ID PTSUNNY   43  31  62 SW17G26   29.95R
DEER PARK      SUNNY     44  29  55 SW13      29.94R
$$

WAZ029>033-172200-
SOUTHEAST WASHINGTON

CITY           SKY/WX    TMP DP  RH WIND       PRES   REMARKS
PULLMAN        MOSUNNY   42  31  64 W24G32    30.02R
LEWISTON, ID   SUNNY     50  27  40 W21G26    30.02R
WALLA WALLA    MOSUNNY   49  34  56 SW23G30   30.09R
PENDLETON, OR  SUNNY     48  30  49 W26G37    30.09R
$$




USA.gov is the U.S. government's official web portal to all federal, state and local government web resources and services.